Weather History for Salina, KS

Change the Weather History Date:

Friday, April 6, 2012

  Actual Average Record
Temperature  
Mean Temperature 51 °F 52 °F  
Max Temperature 63 °F 64 °F 89 °F (1954)
Min Temperature 39 °F 40 °F 17 °F (1936)
Degree Days  
Heating Degree Days 14 13  
Month to date heating degree days 39 84  
Since 1 July heating degree days 3899 4534  
Cooling Degree Days 0 0  
Month to date cooling degree days 11 0  
Year to date cooling degree days 53 2  
Growing Degree Days 1 (Base 50)    
Moisture  
Dew Point 44 °F    
Average Humidity 83    
Maximum Humidity 100    
Minimum Humidity 66    
Precipitation  
Precipitation 0.00 in 0.10 in 1.70 in (2005)
Month to date precipitation 1.37 0.55  
Year to date precipitation 5.41 4.74  
Sea Level Pressure  
Sea Level Pressure 30.06 in    
Wind  
Wind Speed 8 mph (SSE)    
Max Wind Speed 23 mph    
Max Gust Speed 28 mph    
Visibility 6 miles    
Events Fog , Rain    
T = Trace of Precipitation, MM = Missing Value Source: NWS Daily Summary

Daily Weather History Graph

Daily Weather History Graph

Search for Another Location

Airport:

Trip Planner

Search our weather history database for the weather conditions in past years. The results will help you decide how hot, cold, wet, or windy it might be!

Date:

Astronomy

Apr. 06, 2012 Rise Set
Actual Time 7:06 AM CDT 7:59 PM CDT
Civil Twilight 6:39 AM CDT 8:26 PM CDT
Nautical Twilight 6:07 AM CDT 8:58 PM CDT
Astronomical Twilight 5:34 AM CDT 9:32 PM CDT
Moon 8:19 PM CDT (4/6) 6:40 AM CDT (4/6)
Length of Visible Light 13h 46m
Length of Day
12h 52m
Full, 100% of the Moon is Illuminated
Apr 6
Full
Apr 6
Full
Apr 13
Last Quarter
Apr 21
New
Apr 29
First Quarter

Hourly Weather History & Observations

Time (CDT) Temp. Windchill Dew Point Humidity Pressure Visibility Wind Dir Wind Speed Gust Speed Precip Events Conditions
12:53 AM 48.9 °F - 46.9 °F 93% 30.04 in 8.0 mi Calm Calm - N/A   Clear
1:53 AM 44.1 °F - 42.1 °F 93% 30.06 in 5.0 mi Calm Calm - N/A   Clear
2:16 AM 44.6 °F - 42.8 °F 93% 30.06 in 2.5 mi Calm Calm - N/A   Partly Cloudy
2:23 AM 44.6 °F - 42.8 °F 93% 30.07 in 1.2 mi Calm Calm - N/A   Mostly Cloudy
2:32 AM 44.6 °F - 44.6 °F 100% 30.07 in 0.5 mi Calm Calm - N/A Fog Fog
2:53 AM 44.1 °F 42.5 °F 43.0 °F 96% 30.08 in 0.8 mi ESE 3.5 mph - N/A   Mist
3:06 AM 44.6 °F 42.2 °F 42.8 °F 93% 30.07 in 0.2 mi ESE 4.6 mph - N/A Fog Fog
3:14 AM 44.6 °F 42.2 °F 42.8 °F 93% 30.07 in 0.5 mi ESE 4.6 mph - N/A Fog Fog
3:24 AM 44.6 °F 43.1 °F 42.8 °F 93% 30.06 in 0.2 mi ESE 3.5 mph - N/A Fog Fog
3:51 AM 44.6 °F - 42.8 °F 93% 30.06 in 0.5 mi Calm Calm - N/A Fog Fog
3:53 AM 43.0 °F - 42.1 °F 97% 30.07 in 0.5 mi Calm Calm - N/A Fog Fog
4:09 AM 41.0 °F - 39.2 °F 93% 30.07 in 0.2 mi Calm Calm - N/A Fog Fog
4:39 AM 41.0 °F - 39.2 °F 93% 30.07 in 1.0 mi Calm Calm - N/A   Mist
4:44 AM 41.0 °F - 39.2 °F 93% 30.07 in 3.0 mi Calm Calm - N/A   Mostly Cloudy
4:53 AM 39.9 °F - 39.0 °F 97% 30.09 in 5.0 mi Calm Calm - N/A   Scattered Clouds
5:15 AM 41.0 °F - 39.2 °F 93% 30.08 in 1.8 mi Calm Calm - 0.00 in Rain Light Rain
5:19 AM 39.2 °F - 39.2 °F 100% 30.08 in 0.8 mi Calm Calm - 0.00 in Rain Light Rain
5:22 AM 39.2 °F - 37.4 °F 93% 30.08 in 0.2 mi Calm Calm - 0.00 in Fog , Rain Light Rain
5:41 AM 39.2 °F - 37.4 °F 93% 30.09 in 1.0 mi Calm Calm - 0.00 in   Mist
5:45 AM 39.2 °F - 37.4 °F 93% 30.09 in 2.0 mi Calm Calm - 0.00 in   Scattered Clouds
5:53 AM 39.9 °F - 39.0 °F 97% 30.10 in 4.0 mi Calm Calm - 0.00 in   Partly Cloudy
6:35 AM 39.2 °F - 37.4 °F 93% 30.09 in 2.5 mi Calm Calm - 0.01 in   Clear
6:43 AM 39.2 °F - 37.4 °F 93% 30.09 in 10.0 mi Calm Calm - 0.01 in   Clear
6:53 AM 39.0 °F - 37.9 °F 96% 30.09 in 8.0 mi Calm Calm - 0.01 in   Clear
7:53 AM 42.1 °F - 41.0 °F 96% 30.12 in 10.0 mi Calm Calm - N/A   Clear
8:53 AM 46.9 °F - 43.0 °F 86% 30.12 in 10.0 mi SE 3.5 mph - N/A   Clear
9:53 AM 53.1 °F - 45.0 °F 74% 30.12 in 10.0 mi SSE 11.5 mph - N/A   Clear
10:53 AM 55.9 °F - 45.0 °F 67% 30.11 in 10.0 mi SE 13.8 mph - N/A   Clear
11:35 AM 57.2 °F - 46.4 °F 67% 30.10 in 10.0 mi SE 16.1 mph 23.0 mph N/A   Mostly Cloudy
11:53 AM 57.9 °F - 48.0 °F 70% 30.10 in 10.0 mi SSE 16.1 mph - N/A   Overcast
12:53 PM 57.9 °F - 50.0 °F 75% 30.08 in 10.0 mi South 13.8 mph - N/A   Overcast
1:53 PM 55.9 °F - 48.0 °F 75% 30.09 in 10.0 mi SSE 15.0 mph 23.0 mph N/A   Overcast
2:53 PM 59.0 °F - 48.9 °F 69% 30.04 in 10.0 mi South 12.7 mph 23.0 mph N/A   Mostly Cloudy
3:53 PM 60.1 °F - 50.0 °F 69% 30.01 in 10.0 mi SSE 15.0 mph 21.9 mph N/A   Mostly Cloudy
4:46 PM 62.6 °F - 51.8 °F 68% 29.99 in 10.0 mi South 12.7 mph - N/A   Partly Cloudy
4:53 PM 63.0 °F - 52.0 °F 67% 29.99 in 10.0 mi South 13.8 mph - N/A   Partly Cloudy
5:53 PM 62.1 °F - 52.0 °F 70% 29.97 in 10.0 mi South 15.0 mph 21.9 mph N/A   Clear
6:53 PM 60.1 °F - 51.1 °F 72% 29.97 in 10.0 mi South 10.4 mph - N/A   Clear
7:53 PM 57.9 °F - 51.1 °F 78% 29.97 in 10.0 mi South 8.1 mph - N/A   Scattered Clouds
8:53 PM 55.9 °F - 51.1 °F 84% 29.97 in 10.0 mi SSW 4.6 mph - N/A   Mostly Cloudy
9:53 PM 55.9 °F - 51.1 °F 84% 29.98 in 10.0 mi SE 5.8 mph - N/A   Overcast
10:53 PM 55.9 °F - 51.1 °F 84% 29.96 in 10.0 mi SSE 11.5 mph - N/A   Clear
11:53 PM 55.9 °F - 51.1 °F 84% 29.95 in 9.0 mi SSE 11.5 mph - N/A   Clear